User: anonymous   Login
Location: Unspecified
(0.0000°N, 0.0000°E)
Time: 00:48:58
(UTC+02:00)
Language:

Gbstr 26 Del rocket - Orbit

View from above orbital plane
View from above orbital plane
View from above satellite
View from above satellite

Ground track
Ground track

The orbit data is extracted from the following two-line orbital elements,

1 25876U 99041E   18108.68977662  .00000023  00000-0  44168-4 0  9992
2 25876  51.7652 191.4202 0531129 198.4510 159.6485 14.04205539957534
Epoch (UTC): 18 April 2018 16:33:16
Eccentricity: 0.0531129
inclination: 51.7652°
perigee height: 494 km
apogee height: 1265 km
right ascension of ascending node: 191.4202°
argument of perigee: 198.4510°
revolutions per day: 14.04205539
mean anomaly at epoch: 159.6485°
orbit number at epoch: 95753

The dashed part of the orbit path shows where the satellite is in the earth's shadow,  

DLR